Sunshine Coast Airport Observation History
Time Wind Speed Temp Pressure Rel. Hum Rain
11/05:30pm N 12-15 kts 25.4°c 1011.1 hPa 81% 0.0mm
11/05:00pm NNE 14-18 kts 25.5°c 1010.5 hPa 81% 0.0mm
11/04:30pm NNE 15-19 kts 25.7°c 1009.6 hPa 80% 0.0mm
11/04:00pm NNE 16-20 kts 26.1°c 1009.6 hPa 79% 0.0mm
11/03:30pm NNE 15-20 kts 26.6°c 1009.7 hPa 78% 0.0mm
11/03:00pm NNE 17-22 kts 26.9°c 1009.8 hPa 75% 0.0mm
11/02:30pm NNE 17-20 kts 28.8°c 1010.2 hPa 68% 0.0mm
11/02:00pm NE 16-20 kts 29.0°c 1010.5 hPa 70% 0.0mm
11/01:30pm NNE 16-20 kts 28.8°c 1010.9 hPa 67% 0.0mm
11/01:00pm NE 16-22 kts 28.6°c 1011.2 hPa 71% 0.0mm
11/12:30pm NE 16-19 kts 28.6°c 1011.6 hPa 70% 0.0mm
11/12:00pm NE 15-18 kts 28.7°c 1011.9 hPa 68% 0.0mm
11/11:30am NNE 13-18 kts 29.5°c 1012.4 hPa 61% 0.0mm
11/11:00am NE 13-15 kts 28.4°c 1012.9 hPa 70% 0.0mm
11/10:30am NE 13-15 kts 28.2°c 1013.3 hPa 69% 0.0mm
11/10:00am ENE 11-12 kts 28.1°c 1013.9 hPa 68% 0.0mm
11/09:30am ENE 10-11 kts 28.6°c 1014.2 hPa 71% 0.0mm
11/09:00am ENE 9-11 kts 27.7°c 1014.2 hPa 70% 0.0mm
11/08:30am NNW 7-11 kts 28.4°c 1014.3 hPa 62% 0.0mm
11/08:00am WNW 8-11 kts 27.4°c 1014.4 hPa 65% 0.0mm
11/07:30am NW 7-10 kts 26.9°c 1014.4 hPa 69% 0.0mm
11/07:00am NNW 6-8 kts 25.7°c 1014.0 hPa 75% 0.0mm
11/06:30am NW 6-7 kts 24.8°c 1013.7 hPa 81% 0.0mm
11/06:00am NW 5-6 kts 23.3°c 1013.2 hPa 89% 0.0mm
11/05:30am WNW 5-7 kts 22.0°c 1012.7 hPa 92% 0.0mm
11/05:00am NW 5-6 kts 21.4°c 1012.5 hPa 91% 0.0mm
11/04:30am NNW 5-7 kts 21.4°c 1012.1 hPa 90% 0.0mm
11/04:00am NNW 7-9 kts 22.0°c 1011.8 hPa 89% 0.0mm
11/03:30am NNW 8-10 kts 22.4°c 1011.6 hPa 89% 0.0mm
11/03:00am N 7-9 kts 22.4°c 1012.0 hPa 89% 0.0mm
11/02:30am N 6-7 kts 22.5°c 1012.6 hPa 88% 0.0mm
11/02:00am N 7-9 kts 22.5°c 1012.9 hPa 88% 0.0mm
11/01:30am NNW 5-6 kts 22.8°c 1013.8 hPa 87% 0.0mm
11/01:00am WNW 4 kts 24.1°c 1014.3 hPa 84% 0.0mm
11/12:30am NNW 5-7 kts 23.9°c 1014.4 hPa 85% 0.0mm
11/12:00am NNW 5-7 kts 23.7°c 1014.6 hPa 87% 0.0mm
Time Wind Speed Temp Pressure Rel. Hum Rain
10/11:30pm N 4-5 kts 23.3°c 1014.8 hPa 87% 0.0mm
10/11:00pm NNW 5-6 kts 22.7°c 1014.7 hPa 85% 0.0mm
10/10:30pm NNW 6-7 kts 23.6°c 1015.0 hPa 83% 0.0mm
10/10:00pm NNW 7-8 kts 23.4°c 1014.9 hPa 83% 0.0mm
10/09:30pm NNW 6-9 kts 23.9°c 1015.0 hPa 82% 0.0mm
10/09:00pm N 8-11 kts 24.4°c 1014.8 hPa 82% 0.0mm
10/08:30pm N 10-13 kts 24.6°c 1014.6 hPa 81% 0.0mm
10/08:00pm N 12-16 kts 24.8°c 1014.3 hPa 81% 0.0mm
10/07:30pm NNE 13-18 kts 24.9°c 1014.2 hPa 82% 0.0mm
10/07:00pm NNE 13-17 kts 25.0°c 1014.0 hPa 81% 0.0mm
10/06:30pm NNE 11-17 kts 25.1°c 1013.9 hPa 80% 0.0mm
10/06:00pm NNE 13-19 kts 25.5°c 1013.6 hPa 77% 0.0mm
10/05:30pm NNE 15-20 kts 26.2°c 1013.4 hPa 74% 0.0mm
10/05:00pm NNE 15-19 kts 26.8°c 1013.1 hPa 71% 0.0mm
10/04:30pm NNE 16-20 kts 27.3°c 1013.2 hPa 69% 0.0mm
10/04:00pm NNE 16-21 kts 27.8°c 1013.2 hPa 67% 0.0mm
10/03:30pm NNE 15-19 kts 28.1°c 1013.5 hPa 65% 0.0mm
10/03:00pm NE 15-18 kts 28.2°c 1013.7 hPa 63% 0.0mm
10/02:30pm NE 15-18 kts 28.2°c 1014.1 hPa 63% 0.0mm
10/02:00pm NE 15-18 kts 28.9°c 1014.6 hPa 65% 0.0mm
10/01:30pm NE 14-17 kts 28.6°c 1015.0 hPa 60% 0.0mm
10/01:27pm NE 14-17 kts 29.0°c 1015.1 hPa 59% 0.0mm
10/01:04pm NE 13-16 kts 29.4°c 1015.5 hPa 64% 0.0mm
10/01:00pm NE 13-16 kts 28.9°c 1015.5 hPa 65% 0.0mm
10/12:30pm NE 13-15 kts 28.4°c 1015.8 hPa 62% 0.0mm
10/12:00pm NE 13-17 kts 28.2°c 1016.3 hPa 65% 0.0mm
10/11:30am NE 13-17 kts 28.0°c 1016.7 hPa 67% 0.0mm
10/11:00am NE 13-15 kts 28.3°c 1017.0 hPa 65% 0.0mm
10/10:30am NE 12-15 kts 28.5°c 1017.4 hPa 69% 0.0mm
10/10:00am NE 11-15 kts 27.4°c 1017.5 hPa 69% 0.0mm
10/09:30am NE 12-14 kts 28.2°c 1017.6 hPa 69% 0.0mm
10/09:00am NE 10-12 kts 27.4°c 1017.7 hPa 69% 0.0mm
10/08:40am NE 7-9 kts 27.2°c 1017.9 hPa 72% 0.0mm
10/08:30am NE 8-11 kts 27.0°c 1018.0 hPa 72% 0.0mm
10/08:26am NE 7-9 kts 27.1°c 1018.0 hPa 72% 0.0mm
10/08:00am NW 6-8 kts 25.9°c 1018.2 hPa 73% 0.0mm
10/07:30am WNW 4-6 kts 25.2°c 1018.3 hPa 81% 0.0mm
10/07:00am W 3-4 kts 23.2°c 1018.2 hPa 94% 0.0mm
10/06:30am W 4-5 kts 22.4°c 1018.1 hPa 99% 0.0mm
10/06:00am WNW 3-4 kts 21.6°c 1017.8 hPa 99% 0.0mm
10/05:30am WNW 3-4 kts 20.7°c 1017.7 hPa 99% 0.0mm
10/05:00am WNW 3-4 kts 20.8°c 1017.5 hPa 99% 0.0mm
10/04:30am WNW 3-4 kts 20.9°c 1017.4 hPa 99% 0.0mm
10/04:00am WNW 4-5 kts 20.9°c 1017.3 hPa 99% 0.0mm
10/03:50am WNW 4-5 kts 20.9°c 1017.3 hPa 99% 0.0mm
10/03:33am WNW 4-5 kts 20.4°c 1017.2 hPa 98% 0.0mm
10/03:30am WNW 4-5 kts 20.4°c 1017.2 hPa 98% 0.0mm
10/03:27am WNW 4-5 kts 20.4°c 1017.2 hPa 98% 0.0mm
10/03:01am CALM 0 kts 20.1°c 1017.1 hPa 99% 0.0mm
10/03:00am CALM 0 kts 20.4°c 1017.1 hPa 99% 0.0mm
10/02:51am CALM 0 kts 20.8°c 1017.0 hPa 98% 0.0mm
10/02:30am CALM 0 kts 20.6°c 1017.0 hPa 98% 0.0mm
10/02:14am WNW 2-3 kts 20.7°c 1017.1 hPa 99% 0.0mm
10/02:00am WNW 3-4 kts 21.4°c 1017.1 hPa 99% 0.0mm
10/01:30am WNW 4-5 kts 21.3°c 1017.3 hPa 99% 0.0mm
10/01:16am NW 4-5 kts 21.1°c 1017.3 hPa 98% 0.0mm
10/01:00am NW 5-6 kts 20.3°c 1017.4 hPa 97% 0.0mm
10/12:30am WNW 4-5 kts 20.5°c 1017.7 hPa 96% 0.0mm
10/12:16am WNW 4-5 kts 20.7°c 1017.9 hPa 97% 0.0mm
10/12:00am WNW 4-5 kts 21.1°c 1018.1 hPa 96% 0.0mm
Time Wind Speed Temp Pressure Rel. Hum Rain
09/11:30pm WNW 4-5 kts 20.9°c 1018.4 hPa 95% 0.0mm
09/11:00pm W 3-4 kts 21.6°c 1018.9 hPa 95% 0.0mm
09/10:30pm W 4-5 kts 22.3°c 1019.3 hPa 95% 0.0mm
09/10:00pm NW 4-5 kts 22.4°c 1019.4 hPa 95% 0.0mm
09/09:30pm NNW 5-6 kts 22.3°c 1019.4 hPa 94% 0.0mm
09/09:00pm N 4-5 kts 22.7°c 1019.3 hPa 93% 0.0mm
09/08:30pm N 3-4 kts 23.3°c 1019.5 hPa 91% 0.0mm
09/08:00pm NNE 4-6 kts 23.5°c 1019.3 hPa 87% 0.0mm
09/07:30pm NE 5-6 kts 24.5°c 1019.1 hPa 87% 0.0mm
09/07:00pm NE 6-7 kts 24.9°c 1019.0 hPa 85% 0.0mm
09/06:30pm NE 6-8 kts 25.0°c 1018.6 hPa 84% 0.0mm
09/06:00pm ENE 6-8 kts 25.5°c 1018.5 hPa 81% 0.0mm
09/05:30pm E 4-5 kts 26.1°c 1018.3 hPa 76% 0.0mm
09/05:00pm E 5-7 kts 26.4°c 1018.2 hPa 76% 0.0mm
09/04:30pm ENE 6-8 kts 26.8°c 1018.1 hPa 74% 0.0mm
09/04:00pm NE 8-9 kts 26.9°c 1018.2 hPa 71% 0.0mm
09/03:30pm NE 8-10 kts 27.7°c 1018.4 hPa 70% 0.0mm
09/03:00pm E 9-11 kts 27.5°c 1018.3 hPa 77% 0.0mm
09/02:30pm E 9-11 kts 28.1°c 1018.5 hPa 73% 0.0mm
09/02:00pm E 9-12 kts 28.0°c 1018.7 hPa 75% 0.0mm
09/01:30pm ESE 10-14 kts 28.1°c 1018.9 hPa 74% 0.0mm
09/01:00pm SE 10-13 kts 28.2°c 1019.2 hPa 73% 0.0mm
09/12:30pm SE 11-14 kts 27.5°c 1019.4 hPa 73% 0.0mm
09/12:00pm SE 11-14 kts 28.4°c 1019.7 hPa 72% 0.0mm
09/11:30am ESE 10-13 kts 27.6°c 1020.0 hPa 73% 0.0mm
09/11:00am ESE 9-12 kts 28.2°c 1020.3 hPa 70% 0.0mm
09/10:30am SE 10-13 kts 27.5°c 1020.7 hPa 72% 0.0mm
09/10:00am SE 10-13 kts 27.4°c 1020.7 hPa 71% 0.0mm
09/09:30am SE 11-15 kts 27.4°c 1020.8 hPa 71% 0.0mm
09/09:00am SE 11-13 kts 27.6°c 1020.8 hPa 72% 0.0mm
09/08:30am SSE 11-15 kts 27.1°c 1020.6 hPa 73% 0.0mm
09/08:00am SSE 12-15 kts 26.3°c 1020.6 hPa 75% 0.0mm
09/07:30am SSE 11-15 kts 25.8°c 1020.5 hPa 78% 0.0mm
09/07:00am SSE 10-14 kts 25.6°c 1020.2 hPa 81% 0.0mm
09/06:30am SE 11-15 kts 25.2°c 1019.8 hPa 83% 0.0mm
09/06:03am SSE 11-14 kts 24.5°c 1019.5 hPa 85% 0.0mm
09/06:00am SSE 11-14 kts 24.5°c 1019.4 hPa 85% 0.0mm
09/05:30am SSE 10-13 kts 24.4°c 1019.0 hPa 87% 0.0mm
09/05:00am SSE 10-13 kts 24.2°c 1018.8 hPa 88% 0.0mm
09/04:52am SSE 8-13 kts 24.0°c 1018.7 hPa 89% 0.0mm
09/04:30am SSE 9-11 kts 24.0°c 1018.4 hPa 88% 0.0mm
09/04:00am SSE 8-11 kts 24.1°c 1018.2 hPa 89% 0.0mm
09/03:30am SSE 7-8 kts 24.0°c 1018.3 hPa 90% 0.0mm
09/03:00am SSE 7-9 kts 24.1°c 1018.5 hPa 90% 0.0mm
09/02:30am SSE 8-10 kts 24.2°c 1018.4 hPa 90% 0.0mm
09/02:00am SSE 7-9 kts 24.2°c 1018.5 hPa 91% 0.0mm
09/01:30am S 7-9 kts 24.3°c 1018.5 hPa 91% 0.0mm
09/01:10am SSE 8-10 kts 24.4°c 1018.5 hPa 90% 0.0mm
09/01:00am SSE 9-11 kts 24.5°c 1018.5 hPa 89% 0.0mm
09/12:53am SSE 9-11 kts 24.5°c 1018.5 hPa 89% 0.0mm
09/12:52am SSE 9-11 kts 24.5°c 1018.5 hPa 89% 0.0mm
09/12:39am SSE 8-10 kts 24.6°c 1018.6 hPa 89% 0.0mm
09/12:30am SSE 8-11 kts 24.6°c 1018.7 hPa 89% 0.0mm
09/12:00am SSE 7-10 kts 24.7°c 1019.0 hPa 88% 0.0mm